215P/NEAT (2002)

Japanese version
Home page
Updated on September 25, 2011

---------------------------------------------------------------------

* Profile

Designation 215P/2002 O8
Discovery Date July 29, 2002
Magnitude 17.5 mag
Discoverer Near-Earth-Asteroid Tracking Team (Jet Propulsion Laboratory)

* Orbital Elements

Epoch 2002 May 6.0 TT = JDT 2452400.5
T 2002 May 8.61614 TT                                   MPC
q   3.2293889            (2000.0)            P               Q
n   0.12169156     Peri.  222.28101     +0.44997049     +0.86696044
a   4.0330079      Node    75.50177     -0.74866054     +0.49700035
e   0.1992605      Incl.   12.78567     -0.48686133     +0.03701683
P   8.10

* Finding Charts

* Magnitudes Graph

        m1 = -10.2 + 5 log d + 50 log r(t - 180)

---------------------------------------------------------------------

The orbital elements are published on M.P.E.C. 2009-C19.
The charts are made with StellaNavigator Ver.2.0 for Windows (AstroArts / ASCII).
The magnitudes graphs are made with Comet for Windows.

---------------------------------------------------------------------

Copyright(C) Seiichi Yoshida (comet@aerith.net). All rights reserved.